Tracking 25701 objects as of 3-Jul-2022
HD Live streaming from Space Station
objects crossing your sky now

FENGYUN 1C DEB

Track FENGYUN 1C DEB now!
10-day predictions


NORAD ID: 33684
Int'l Code: 1999-025DFV
Perigee: 476.2 km
Apogee: 1,070.3 km
Inclination: 99.0 °
Period: 100.2 minutes
Semi major axis: 7144 km
RCS: 0.0093 m2 (small)
Launch date: May 10, 1999
Source: People's Republic of China (PRC)
Launch site: Taiyaun Space Center, China (TSC)

Note: This is SATELLITE DEBRIS
aabbcc
Your satellite tracking list
Your tracking list is empty




NASA's NSSDC Master Catalog

Two Line Element Set (TLE):
1 33684U 99025DFV 22183.27038188  .00001083  00000-0  13931-3 0  9994
2 33684  99.0327 115.0562 0415810 177.8857 182.4215 14.37699182746963
Source of the keplerian elements: AFSPC